This demonstration page uses our WeatherBlox Daily Observations layout. Learn more.

Left ArrowRight Arrow

Hourly Observations for November 23, 2019

Temp ( °F °C ) Dew Point ( °F °C ) Humidity (%) Winds ( mph kmh ) Pressure ( in mb ) Visibility ( mi km ) Precip ( " mm )
12:53 am 00:53 Cloudy 59 15 57 13.9 93 93 Calm 29.96 1015 9 14 0.00 0.00
1:53 am 01:53 Mostly Cloudy 58 14.4 57 13.9 97 97 Calm 29.95 1014 8 13 0.00 0.00
2:00 am 02:00 Mostly Cloudy 59 15 57 13.9 93 93 Calm 29.96 1015 7 11 0.00 0.00
2:41 am 02:41 Mostly Cloudy with Mist and Fog 58 14.4 56 13.3 93 93 Calm 29.96 1014 4 6 0.00 0.00
2:53 am 02:53 Partly Cloudy with Mist and Fog 58 14.4 57 13.9 97 97 Calm 29.94 1014 3 5 0.00 0.00
3:01 am 03:01 Mostly Clear with Mist and Fog 58 14.4 56 13.3 93 93 Calm 29.96 1014 2 2 0.00 0.00
3:11 am 03:11 Partly Cloudy 57 13.9 56 13.3 96 96 Calm 29.96 1014 9 14 0.00 0.00
3:53 am 03:53 Cloudy with Light Rain 58 14.4 56 13.3 93 93 Calm 29.93 1014 9 14 0.00 0.00
4:53 am 04:53 Cloudy with Mist and Fog 59 15 57 13.9 93 93 SW 3 6 29.91 1013 6 10 0.02 0.51
5:53 am 05:53 Cloudy with Light Rain 59 15 57 13.9 93 93 WSW 3 6 29.90 1012 4 6 0.01 0.25
6:53 am 06:53 Cloudy with Light Rain 59 15 58 14.4 96 96 S 3 6 29.90 1013 5 8 0.01 0.25
7:53 am 07:53 Cloudy with Light Rain 60 15.6 59 15 96 96 SSW 7 11 29.89 1012 8 13 0.05 1.27
8:45 am 08:45 Cloudy with Light Rain 61 16.1 59 15 93 93 SSW 8 13 29.90 1013 10 16 0.01 0.25
8:53 am 08:53 Cloudy with Light Rain 61 16.1 59 15 93 93 SSW 8 13 29.89 1012 10 16 0.02 0.51
9:11 am 09:11 Cloudy with Light Rain 61 16.1 59 15 93 93 SSW 8 13 29.90 1013 7 11 0.01 0.25
9:53 am 09:53 Cloudy with Light Rain 62 16.7 60 15.6 93 93 S 9 15 29.87 1011 7 11 0.09 2.29
10:13 am 10:13 Cloudy with Light Rain 62 16.7 60 15.6 93 93 S 14 22 29.84 1010 7 11 0.01 0.25
10:23 am 10:23 Cloudy with Light Rain 62 16.7 60 15.6 93 93 S 8 13 29.85 1011 8 13 0.02 0.51
10:53 am 10:53 Cloudy 63 17.2 61 16.1 93 93 S 13 20 29.83 1010 10 16 0.03 0.76
11:44 am 11:44 Cloudy with Light Rain 63 17.2 61 16.1 93 93 S 9 15 29.82 1010 7 11 0.06 1.52
11:53 am 11:53 Cloudy with Light Rain 63 17.2 61 16.1 93 93 S 7 11 29.80 1009 10 16 0.06 1.52
12:23 pm 12:23 Cloudy with Light Rain 65 18.3 62 16.7 90 90 S 10 17 29.77 1008 10 16 0.00 0.00
12:34 pm 12:34 Cloudy with Light Rain 65 18.3 62 16.7 90 90 SSW 9 15 29.77 1008 10 16 0.00 0.00
12:53 pm 12:53 Cloudy with Light Rain 64 17.8 62 16.7 93 93 S 9 15 29.75 1008 4 6 0.03 0.76
12:57 pm 12:57 Cloudy with Rain 64 17.8 62 16.7 93 93 S 6 9 29.76 1008 3 4 0.01 0.25
1:15 pm 13:15 Cloudy with Heavy Rain 64 17.8 62 16.7 93 93 SSW 12 19 29.75 1007 1 2 0.14 3.56
1:24 pm 13:24 Cloudy with Rain 64 17.8 62 16.7 93 93 SSW 9 15 29.74 1007 3 4 0.17 4.32
1:28 pm 13:28 Cloudy with Rain 64 17.8 62 16.7 93 93 SSW 8 13 29.74 1007 3 4 0.18 4.57
1:33 pm 13:33 Cloudy with Heavy Rain 64 17.8 62 16.7 93 93 SSW 7 11 29.74 1007 2 3 0.22 5.59
1:53 pm 13:53 Cloudy with Heavy Rain 64 17.8 62 16.7 93 93 SW 8 13 29.73 1007 2 2 0.39 9.91
1:59 pm 13:59 Cloudy with Heavy Rain 64 17.8 62 16.7 93 93 SW 7 11 29.74 1007 1 1 0.08 2.03
2:04 pm 14:04 Cloudy with Heavy Rain 64 17.8 62 16.7 93 93 WSW 8 13 29.74 1007 1 2 0.12 3.05
2:09 pm 14:09 Cloudy with Heavy Rain 64 17.8 62 16.7 93 93 SW 8 13 29.73 1007 1 2 0.17 4.32
2:16 pm 14:16 Cloudy with Rain 64 17.8 62 16.7 93 93 SW 9 15 29.73 1007 2 3 0.19 4.83
2:19 pm 14:19 Cloudy with Light Rain 64 17.8 62 16.7 93 93 SW 9 15 29.73 1007 3 5 0.19 4.83
2:53 pm 14:53 Cloudy 65 18.3 62 16.7 90 90 SW 6 9 29.71 1006 10 16 0.19 4.83
2:57 pm 14:57 Cloudy 65 18.3 63 17.2 93 93 SW 7 11 29.70 1006 10 16 0.00 0.00
3:21 pm 15:21 Cloudy 65 18.3 62 16.7 90 90 SW 7 11 29.70 1006 10 16 0.00 0.00
4:53 pm 16:53 Partly Cloudy 65 18.3 59 15 81 81 SW 7 11 29.71 1006 10 16 0.00 0.00
5:53 pm 17:53 Clear 62 16.7 49 9.4 62 62 W 8 13 29.73 1007 10 16 0.00 0.00
6:53 pm 18:53 Clear 57 13.9 46 7.8 67 67 W 12 19 29.77 1008 10 16 0.00 0.00
7:53 pm 19:53 Partly Cloudy 54 12.2 43 6.1 67 67 WNW 12 19 29.80 1009 10 16 0.00 0.00
8:53 pm 20:53 Cloudy 52 11.1 41 5 66 66 W 18 30 29.84 1010 10 16 0.00 0.00
9:02 pm 21:02 Cloudy 51 10.6 42 5.6 71 71 W 15 24 29.86 1011 10 16 0.00 0.00
9:53 pm 21:53 Cloudy 49 9.4 41 5 74 74 WNW 18 30 29.84 1011 10 16 0.00 0.00
10:53 pm 22:53 Cloudy 47 8.3 38 3.3 71 71 WNW 16 26 29.85 1011 10 16 0.00 0.00
11:00 pm 23:00 Clear 47 8.3 37 2.8 69 69 WNW 13 20 29.89 1012 10 16 0.00 0.00
11:53 pm 23:53 Clear 45 7.2 36 2.2 71 71 W 8 13 29.87 1012 10 16 0.00 0.00

Powered by AerisWeather